カタログに戻る

STARLINK-5822

運用中通信VLEO
NORAD 57064·PAYLOAD·🇺🇸 United States

打ち上げ Jun 22, 2023 から Vandenberg Space Force Base

Loading…

次のパス (今後24時間)

TLE

最新Source: CelesTrak SupGP

元期: Sep 15, 2026, 01:55 UTC

1 57064C 23088S   26258.08034722  .00061692  00000+0  22345-2 0  2581
2 57064  42.9983 120.9359 0001466 220.7689 328.8600 15.27547488    18

AllMySatでSTARLINK-5822をリアルタイム追跡

Download on the App Store